Jonesville, VA

10:22 AM EDT on March 26, 2017 (GMT -0400)
Jonesville

Weather History for K0VG - January, 2013

Change the Weather History Date:

Saturday, January 12, 2013

  Actual Average (KLNP) Record (KLNP)
Temperature  
Mean Temperature 60 °F -  
Max Temperature 68 °F 38 °F 69 °F (2013)
Min Temperature 53 °F 22 °F 3 °F (1997)
Degree Days  
Heating Degree Days 4    
Growing Degree Days 10 (Base 50)    
Moisture  
Dew Point 60 °F    
Average Humidity 96    
Maximum Humidity 100    
Minimum Humidity 83    
Precipitation  
Precipitation 0.01 in - - ()
Sea Level Pressure  
Sea Level Pressure 30.10 in    
Wind  
Wind Speed 1 mph (WSW)    
Max Wind Speed 7 mph    
Max Gust Speed -    
Visibility 7 miles    
Events Fog , Rain    
Averages and records for this station are not official NWS values.
T = Trace of Precipitation, MM = Missing Value Source: NWS Daily Summary

Daily Weather History Graph

Daily Weather History Graph

Search for Another Location

Airport or City:

Trip Planner

Search our weather history database for the weather conditions in past years. The results will help you decide how hot, cold, wet, or windy it might be!

Date:

Astronomy

Jan. 12, 2013 Rise Set
Actual Time 7:45 AM EST 5:37 PM EST
Civil Twilight 7:16 AM EST 6:06 PM EST
Nautical Twilight 6:44 AM EST 6:38 PM EST
Astronomical Twilight 6:13 AM EST 7:09 PM EST
Moon 8:05 AM EST (1/12) 7:02 PM EST (1/12)
Length of Visible Light 10h 49m
Length of Day
9h 52m
New Moon, 1% of the Moon is Illuminated
Jan 12
New Moon
Jan 18
First Quarter
Jan 26
Full
Feb 3
Last Quarter
Feb 10
New

Hourly Weather History & Observations

Time (EST) Temp. Dew Point Humidity Pressure Visibility Wind Dir Wind Speed Gust Speed Precip Events Conditions
12:15 AM 60.8 °F 59.0 °F 94% 30.12 in 10.0 mi Calm Calm - N/A   Overcast
12:35 AM 60.8 °F 59.0 °F 94% 30.12 in 10.0 mi Calm Calm - N/A   Overcast
12:55 AM 60.8 °F 59.0 °F 94% 30.11 in 10.0 mi Calm Calm - N/A   Overcast
1:15 AM 59.0 °F 59.0 °F 100% 30.11 in 5.0 mi Calm Calm - N/A Rain Light Rain
1:35 AM 59.0 °F 59.0 °F 100% 30.11 in 3.0 mi Calm Calm - N/A Rain Light Rain
1:55 AM 59.0 °F 59.0 °F 100% 30.11 in 2.0 mi Calm Calm - N/A Rain Light Rain
2:15 AM 59.0 °F 59.0 °F 100% 30.11 in 0.8 mi Calm Calm - N/A Rain Light Rain
2:55 AM 59.0 °F 59.0 °F 100% 30.12 in 0.8 mi Calm Calm - N/A   Mist
3:15 AM 59.0 °F 59.0 °F 100% 30.12 in 0.8 mi Calm Calm - N/A   Overcast
3:35 AM 59.0 °F 59.0 °F 100% 30.11 in 1.8 mi Calm Calm - N/A Rain Light Rain
3:55 AM 59.0 °F 59.0 °F 100% 30.11 in 3.0 mi Calm Calm - 0.01 in Rain Light Rain
4:15 AM 59.0 °F 59.0 °F 100% 30.11 in 1.0 mi Calm Calm - N/A   Overcast
4:35 AM 60.8 °F 60.8 °F 100% 30.11 in 7.0 mi West 3.5 mph - N/A   Overcast
4:55 AM 62.6 °F 62.6 °F 100% 30.11 in 10.0 mi WSW 3.5 mph - N/A   Mostly Cloudy
5:15 AM 62.6 °F 62.6 °F 100% 30.11 in 10.0 mi WSW 6.9 mph - N/A   Mostly Cloudy
5:35 AM 60.8 °F 60.8 °F 100% 30.11 in 10.0 mi SW 5.8 mph - N/A   Mostly Cloudy
5:55 AM 60.8 °F 60.8 °F 100% 30.11 in 10.0 mi SSW 3.5 mph - N/A   Mostly Cloudy
6:15 AM 60.8 °F 60.8 °F 100% 30.11 in 4.0 mi North 3.5 mph - N/A   Overcast
6:35 AM 60.8 °F 60.8 °F 100% 30.11 in 5.0 mi Calm Calm - N/A   Mostly Cloudy
6:55 AM 60.8 °F 60.8 °F 100% 30.12 in 7.0 mi Calm Calm - N/A   Mostly Cloudy
7:15 AM 60.8 °F 60.8 °F 100% 30.13 in 5.0 mi Calm Calm - N/A   Overcast
7:35 AM 60.8 °F 60.8 °F 100% 30.13 in 5.0 mi Calm Calm - N/A   Mostly Cloudy
7:55 AM 59.0 °F 59.0 °F 100% 30.14 in 4.0 mi Calm Calm - N/A   Mostly Cloudy
8:15 AM 59.0 °F 59.0 °F 100% 30.14 in 3.0 mi Calm Calm - N/A   Overcast
8:35 AM 59.0 °F 59.0 °F 100% 30.15 in 4.0 mi Calm Calm - N/A   Overcast
8:55 AM 59.0 °F 59.0 °F 100% 30.16 in 3.0 mi Calm Calm - N/A   Overcast
9:15 AM 62.6 °F 62.6 °F 100% 30.17 in 7.0 mi Calm Calm - N/A   Mostly Cloudy
9:35 AM 62.6 °F 62.6 °F 100% 30.17 in 9.0 mi SW 3.5 mph - N/A   Overcast
9:55 AM 62.6 °F 62.6 °F 100% 30.17 in 10.0 mi Calm Calm - N/A   Mostly Cloudy
10:15 AM 64.4 °F 62.6 °F 94% 30.17 in 10.0 mi SW 3.5 mph - N/A   Overcast
10:55 AM 66.2 °F 62.6 °F 88% 30.16 in 10.0 mi Calm Calm - N/A   Overcast
11:15 AM 66.2 °F 62.6 °F 88% 30.15 in 10.0 mi Calm Calm - N/A   Overcast
11:35 AM 66.2 °F 62.6 °F 88% 30.15 in 10.0 mi Calm Calm - N/A   Overcast
11:55 AM 66.2 °F 62.6 °F 88% 30.14 in 10.0 mi Calm Calm - N/A   Overcast
12:15 PM 66.2 °F 62.6 °F 88% 30.13 in 10.0 mi Calm Calm - N/A   Overcast
1:15 PM 66.2 °F 62.6 °F 88% 30.11 in 10.0 mi Calm Calm - N/A   Overcast
1:35 PM 66.2 °F 62.6 °F 88% 30.11 in 10.0 mi Calm Calm - N/A   Overcast
1:55 PM 68.0 °F 62.6 °F 83% 30.10 in 10.0 mi Calm Calm - N/A   Mostly Cloudy
2:35 PM 68.0 °F 62.6 °F 83% 30.09 in 10.0 mi SW 6.9 mph - N/A   Mostly Cloudy
2:55 PM 68.0 °F 62.6 °F 83% 30.09 in 10.0 mi SW 4.6 mph - N/A   Overcast
3:15 PM 68.0 °F 62.6 °F 83% 30.09 in 10.0 mi WSW 4.6 mph - N/A   Overcast
3:35 PM 68.0 °F 62.6 °F 83% 30.09 in 10.0 mi West 4.6 mph - N/A   Overcast
3:55 PM 68.0 °F 62.6 °F 83% 30.09 in 10.0 mi Calm Calm - N/A   Mostly Cloudy
4:15 PM 68.0 °F 62.6 °F 83% 30.08 in 10.0 mi Calm Calm - N/A   Scattered Clouds
4:35 PM 68.0 °F 62.6 °F 83% 30.08 in 10.0 mi Calm Calm - N/A   Mostly Cloudy
4:55 PM 66.2 °F 62.6 °F 88% 30.07 in 10.0 mi Calm Calm - N/A   Mostly Cloudy
5:15 PM 66.2 °F 62.6 °F 88% 30.07 in 10.0 mi Calm Calm - N/A   Mostly Cloudy
5:35 PM 64.4 °F 62.6 °F 94% 30.07 in 10.0 mi Calm Calm - N/A   Mostly Cloudy
5:55 PM 64.4 °F 62.6 °F 94% 30.07 in 10.0 mi Calm Calm - N/A   Overcast
6:15 PM 62.6 °F 62.6 °F 100% 30.07 in 10.0 mi NW 3.5 mph - N/A   Mostly Cloudy
6:35 PM 62.6 °F 60.8 °F 94% 30.07 in 10.0 mi Calm Calm - N/A   Mostly Cloudy
7:15 PM 59.0 °F 59.0 °F 100% 30.07 in 10.0 mi East 3.5 mph - N/A   Scattered Clouds
7:35 PM 59.0 °F 59.0 °F 100% 30.06 in 5.0 mi Calm Calm - N/A   Scattered Clouds
7:55 PM 57.2 °F 57.2 °F 100% 30.06 in 3.0 mi Calm Calm - N/A   Scattered Clouds
8:15 PM 57.2 °F 57.2 °F 100% 30.06 in 2.5 mi Calm Calm - N/A   Mist
8:35 PM 55.4 °F 55.4 °F 100% 30.06 in 1.5 mi Calm Calm - N/A   Mist
8:55 PM 55.4 °F 55.4 °F 100% 30.06 in 0.5 mi Calm Calm - N/A Fog Fog
9:15 PM 55.4 °F 55.4 °F 100% 30.05 in 4.0 mi Calm Calm - N/A   Mist
9:35 PM 57.2 °F 57.2 °F 100% 30.05 in 4.0 mi Calm Calm - N/A   Overcast
9:55 PM 57.2 °F 57.2 °F 100% 30.05 in 5.0 mi Calm Calm - N/A   Overcast
10:15 PM 55.4 °F 55.4 °F 100% 30.05 in 5.0 mi Calm Calm - N/A   Overcast
10:35 PM 55.4 °F 55.4 °F 100% 30.05 in 6.0 mi Calm Calm - N/A   Mostly Cloudy
10:55 PM 55.4 °F 55.4 °F 100% 30.04 in 5.0 mi Calm Calm - N/A   Mostly Cloudy
11:15 PM 53.6 °F 53.6 °F 100% 30.04 in 3.0 mi NE 3.5 mph - N/A   Mist
11:35 PM 55.4 °F 55.4 °F 100% 30.04 in 2.5 mi Calm Calm - N/A   Mist
11:55 PM 53.6 °F 53.6 °F 100% 30.04 in 1.8 mi Calm Calm - N/A   Mist